Time,TemperatureF,DewpointF,PressureIn,WindDirection,WindDirectionDegrees,WindSpeedMPH,WindSpeedGustMPH,Humidity,HourlyPrecipIn,Conditions,Clouds,dailyrainin,SolarRadiationWatts/m^2,SoftwareType,DateUTC
2013-04-05 00:02:00,56.8,52.0,30.16,West,270,2.0,5.0,85,0.00,,,0.16,0,weatherlink.com 1.10,2013-04-05 07:02:00,
2013-04-05 00:17:00,56.8,52.0,30.17,West,278,3.0,6.0,85,0.00,,,0.00,0,weatherlink.com 1.10,2013-04-05 07:17:00,
2013-04-05 00:32:00,56.7,53.0,30.17,WSW,251,3.0,7.0,86,0.00,,,0.00,0,weatherlink.com 1.10,2013-04-05 07:32:00,
2013-04-05 00:47:00,56.6,53.0,30.17,WNW,282,1.0,8.0,86,0.00,,,0.00,0,weatherlink.com 1.10,2013-04-05 07:47:00,
2013-04-05 01:02:00,56.5,52.0,30.18,West,275,4.0,5.0,86,0.00,,,0.00,0,weatherlink.com 1.10,2013-04-05 08:02:00,
2013-04-05 01:17:00,56.4,52.0,30.18,West,273,0.0,6.0,86,0.00,,,0.00,0,weatherlink.com 1.10,2013-04-05 08:17:00,
2013-04-05 01:32:00,56.2,52.0,30.18,WSW,245,6.0,6.0,86,0.00,,,0.00,0,weatherlink.com 1.10,2013-04-05 08:32:00,
2013-04-05 01:47:00,56.0,51.0,30.18,West,273,7.0,8.0,84,0.00,,,0.00,0,weatherlink.com 1.10,2013-04-05 08:47:00,
2013-04-05 02:02:00,55.9,51.0,30.18,West,273,1.0,6.0,84,0.00,,,0.00,0,weatherlink.com 1.10,2013-04-05 09:02:00,
2013-04-05 02:17:00,56.0,51.0,30.18,West,275,1.0,4.0,83,0.00,,,0.00,0,weatherlink.com 1.10,2013-04-05 09:17:00,
2013-04-05 02:32:00,55.7,51.0,30.18,West,267,0.0,4.0,83,0.00,,,0.00,0,weatherlink.com 1.10,2013-04-05 09:32:00,
2013-04-05 02:47:00,55.7,50.0,30.18,West,263,2.0,7.0,82,0.00,,,0.00,0,weatherlink.com 1.10,2013-04-05 09:47:00,
2013-04-05 03:02:00,55.7,50.0,30.17,West,273,1.0,5.0,82,0.00,,,0.00,0,weatherlink.com 1.10,2013-04-05 10:02:00,
2013-04-05 03:18:00,55.8,50.0,30.18,West,265,4.0,9.0,81,0.00,,,0.00,0,weatherlink.com 1.10,2013-04-05 10:18:00,
2013-04-05 03:33:00,55.7,50.0,30.18,SW,228,1.0,3.0,80,0.00,,,0.00,0,weatherlink.com 1.10,2013-04-05 10:33:00,
2013-04-05 03:48:00,55.8,50.0,30.18,SW,228,1.0,3.0,81,0.00,,,0.00,0,weatherlink.com 1.10,2013-04-05 10:48:00,
2013-04-05 04:03:00,55.7,50.0,30.18,SW,229,0.0,2.0,82,0.00,,,0.00,0,weatherlink.com 1.10,2013-04-05 11:03:00,
2013-04-05 04:18:00,55.7,50.0,30.18,SW,229,0.0,2.0,82,0.00,,,0.00,0,weatherlink.com 1.10,2013-04-05 11:18:00,
2013-04-05 04:33:00,55.5,50.0,30.18,SW,229,0.0,0.0,82,0.00,,,0.00,0,weatherlink.com 1.10,2013-04-05 11:33:00,
2013-04-05 04:48:00,55.2,50.0,30.18,SW,229,0.0,2.0,83,0.00,,,0.00,0,weatherlink.com 1.10,2013-04-05 11:48:00,
2013-04-05 05:03:00,55.2,51.0,30.18,SW,229,0.0,1.0,84,0.00,,,0.00,0,weatherlink.com 1.10,2013-04-05 12:03:00,
2013-04-05 05:18:00,55.0,50.0,30.18,SW,229,0.0,2.0,83,0.00,,,0.00,0,weatherlink.com 1.10,2013-04-05 12:18:00,
2013-04-05 05:33:00,54.9,50.0,30.18,SW,229,0.0,1.0,83,0.00,,,0.00,0,weatherlink.com 1.10,2013-04-05 12:33:00,
2013-04-05 05:48:00,54.4,49.0,30.18,SW,229,0.0,0.0,83,0.00,,,0.00,0,weatherlink.com 1.10,2013-04-05 12:48:00,
2013-04-05 06:03:00,53.8,49.0,30.18,SW,229,0.0,0.0,85,0.00,,,0.00,0,weatherlink.com 1.10,2013-04-05 13:03:00,
2013-04-05 06:18:00,53.4,50.0,30.18,SW,229,0.0,0.0,87,0.00,,,0.00,0,weatherlink.com 1.10,2013-04-05 13:18:00,
2013-04-05 06:33:00,52.9,50.0,30.18,SW,229,0.0,0.0,88,0.00,,,0.00,0,weatherlink.com 1.10,2013-04-05 13:33:00,
2013-04-05 06:48:00,52.5,49.0,30.18,SW,229,0.0,0.0,89,0.00,,,0.00,0,weatherlink.com 1.10,2013-04-05 13:48:00,
2013-04-05 07:03:00,52.8,50.0,30.19,SW,229,0.0,0.0,90,0.00,,,0.00,9,weatherlink.com 1.10,2013-04-05 14:03:00,
2013-04-05 07:20:00,53.2,50.0,30.18,SW,229,0.0,0.0,90,0.00,,,0.00,19,weatherlink.com 1.10,2013-04-05 14:20:00,
2013-04-05 07:33:00,53.6,51.0,30.19,SW,229,0.0,0.0,89,0.00,,,0.00,33,weatherlink.com 1.10,2013-04-05 14:33:00,
2013-04-05 07:48:00,54.0,51.0,30.20,SW,229,0.0,1.0,88,0.00,,,0.00,77,weatherlink.com 1.10,2013-04-05 14:48:00,
2013-04-05 08:03:00,54.7,51.0,30.20,SW,229,0.0,2.0,88,0.00,,,0.00,77,weatherlink.com 1.10,2013-04-05 15:03:00,
2013-04-05 08:18:00,55.3,51.0,30.20,SW,229,0.0,2.0,86,0.00,,,0.00,153,weatherlink.com 1.10,2013-04-05 15:18:00,
2013-04-05 08:33:00,56.1,52.0,30.21,SW,229,0.0,4.0,85,0.00,,,0.00,171,weatherlink.com 1.10,2013-04-05 15:33:00,
2013-04-05 08:48:00,56.5,51.0,30.21,WSW,248,0.0,4.0,82,0.00,,,0.00,255,weatherlink.com 1.10,2013-04-05 15:48:00,
2013-04-05 09:03:00,56.7,51.0,30.21,WSW,248,1.0,3.0,82,0.00,,,0.00,162,weatherlink.com 1.10,2013-04-05 16:03:00,
2013-04-05 09:18:00,58.0,51.0,30.21,ESE,121,5.0,5.0,78,0.00,,,0.00,127,weatherlink.com 1.10,2013-04-05 16:18:00,
2013-04-05 09:33:00,57.8,51.0,30.21,WSW,244,3.0,5.0,79,0.00,,,0.00,91,weatherlink.com 1.10,2013-04-05 16:33:00,
2013-04-05 10:03:00,55.3,53.0,30.21,West,272,2.0,4.0,91,0.01,,,0.01,151,weatherlink.com 1.10,2013-04-05 17:03:00,
2013-04-05 10:34:00,56.7,54.0,30.21,WSW,247,4.0,4.0,89,0.01,,,0.01,308,weatherlink.com 1.10,2013-04-05 17:34:00,
2013-04-05 10:48:00,57.4,53.0,30.21,West,267,1.0,6.0,84,0.00,,,0.01,200,weatherlink.com 1.10,2013-04-05 17:48:00,
2013-04-05 11:04:00,57.9,52.0,30.22,WSW,252,4.0,7.0,82,0.00,,,0.01,260,weatherlink.com 1.10,2013-04-05 18:04:00,
2013-04-05 11:19:00,59.1,52.0,30.22,SSE,148,1.0,6.0,78,0.00,,,0.01,902,weatherlink.com 1.10,2013-04-05 18:19:00,
2013-04-05 11:49:00,60.8,51.0,30.22,WSW,243,4.0,7.0,71,0.00,,,0.01,366,weatherlink.com 1.10,2013-04-05 18:49:00,
2013-04-05 12:34:00,62.0,51.0,30.22,West,273,7.0,14.0,67,0.00,,,0.01,519,weatherlink.com 1.10,2013-04-05 19:34:00,
2013-04-05 13:04:00,63.0,51.0,30.22,SW,235,6.0,12.0,66,0.00,,,0.01,1049,weatherlink.com 1.10,2013-04-05 20:04:00,
2013-04-05 13:19:00,62.9,50.0,30.22,West,274,8.0,12.0,63,0.00,,,0.01,330,weatherlink.com 1.10,2013-04-05 20:19:00,
2013-04-05 13:34:00,62.7,50.0,30.20,NW,308,6.0,12.0,64,0.00,,,0.01,965,weatherlink.com 1.10,2013-04-05 20:34:00,
2013-04-05 13:49:00,62.7,51.0,30.19,West,266,4.0,12.0,65,0.00,,,0.01,568,weatherlink.com 1.10,2013-04-05 20:49:00,
2013-04-05 14:04:00,62.6,50.0,30.19,WSW,253,5.0,8.0,64,0.00,,,0.01,520,weatherlink.com 1.10,2013-04-05 21:04:00,
2013-04-05 14:19:00,62.5,50.0,30.19,WSW,257,10.0,12.0,65,0.00,,,0.01,547,weatherlink.com 1.10,2013-04-05 21:19:00,
2013-04-05 14:34:00,63.6,52.0,30.19,WSW,242,7.0,11.0,65,0.00,,,0.01,499,weatherlink.com 1.10,2013-04-05 21:34:00,
2013-04-05 14:49:00,64.3,51.0,30.19,WSW,246,11.0,12.0,62,0.00,,,0.01,557,weatherlink.com 1.10,2013-04-05 21:49:00,
2013-04-05 15:04:00,64.0,51.0,30.18,WSW,250,3.0,11.0,63,0.00,,,0.01,309,weatherlink.com 1.10,2013-04-05 22:04:00,
2013-04-05 15:19:00,63.0,50.0,30.18,WNW,284,9.0,11.0,63,0.00,,,0.01,294,weatherlink.com 1.10,2013-04-05 22:19:00,
2013-04-05 15:34:00,63.4,50.0,30.17,West,267,4.0,11.0,61,0.00,,,0.01,793,weatherlink.com 1.10,2013-04-05 22:34:00,
2013-04-05 15:49:00,63.7,50.0,30.18,NW,315,5.0,12.0,62,0.00,,,0.01,666,weatherlink.com 1.10,2013-04-05 22:49:00,
2013-04-05 16:04:00,63.8,50.0,30.17,WSW,253,6.0,13.0,61,0.00,,,0.01,199,weatherlink.com 1.10,2013-04-05 23:04:00,
2013-04-05 16:19:00,62.8,50.0,30.18,WNW,301,11.0,11.0,63,0.00,,,0.01,234,weatherlink.com 1.10,2013-04-05 23:19:00,
2013-04-05 16:49:00,63.6,49.0,30.17,WSW,248,4.0,12.0,60,0.00,,,0.01,619,weatherlink.com 1.10,2013-04-05 23:49:00,
2013-04-05 17:04:00,64.1,49.0,30.17,WNW,300,3.0,10.0,59,0.00,,,0.01,432,weatherlink.com 1.10,2013-04-06 00:04:00,
2013-04-05 17:19:00,63.8,50.0,30.16,West,265,4.0,10.0,61,0.00,,,0.01,406,weatherlink.com 1.10,2013-04-06 00:19:00,
2013-04-05 17:34:00,63.8,50.0,30.17,WSW,254,3.0,9.0,62,0.00,,,0.01,362,weatherlink.com 1.10,2013-04-06 00:34:00,
2013-04-05 17:49:00,63.6,50.0,30.17,West,268,7.0,11.0,62,0.00,,,0.01,295,weatherlink.com 1.10,2013-04-06 00:49:00,
2013-04-05 18:04:00,62.8,49.0,30.17,WNW,285,4.0,13.0,62,0.00,,,0.01,223,weatherlink.com 1.10,2013-04-06 01:04:00,
2013-04-05 18:19:00,61.8,49.0,30.17,WNW,293,4.0,12.0,63,0.00,,,0.01,169,weatherlink.com 1.10,2013-04-06 01:19:00,
2013-04-05 18:34:00,60.5,49.0,30.17,SW,215,4.0,10.0,67,0.00,,,0.01,49,weatherlink.com 1.10,2013-04-06 01:34:00,
2013-04-05 18:49:00,59.5,49.0,30.18,West,264,5.0,9.0,69,0.00,,,0.01,21,weatherlink.com 1.10,2013-04-06 01:49:00,
2013-04-05 19:04:00,58.7,50.0,30.18,WNW,292,6.0,11.0,72,0.00,,,0.01,19,weatherlink.com 1.10,2013-04-06 02:04:00,
2013-04-05 19:19:00,58.0,49.0,30.17,West,279,5.0,12.0,73,0.00,,,0.01,12,weatherlink.com 1.10,2013-04-06 02:19:00,
2013-04-05 19:34:00,57.3,49.0,30.17,West,271,4.0,9.0,74,0.00,,,0.01,0,weatherlink.com 1.10,2013-04-06 02:34:00,
2013-04-05 19:49:00,56.7,50.0,30.18,West,272,6.0,9.0,77,0.00,,,0.01,0,weatherlink.com 1.10,2013-04-06 02:49:00,
2013-04-05 20:05:00,56.2,49.0,30.18,WSW,238,5.0,8.0,78,0.00,,,0.01,0,weatherlink.com 1.10,2013-04-06 03:05:00,
2013-04-05 20:19:00,55.6,50.0,30.18,West,273,5.0,10.0,80,0.00,,,0.01,0,weatherlink.com 1.10,2013-04-06 03:19:00,
2013-04-05 20:35:00,55.3,49.0,30.19,West,272,5.0,9.0,80,0.00,,,0.01,0,weatherlink.com 1.10,2013-04-06 03:35:00,
2013-04-05 20:50:00,55.0,49.0,30.19,West,275,0.0,11.0,81,0.00,,,0.01,0,weatherlink.com 1.10,2013-04-06 03:50:00,
2013-04-05 21:05:00,54.7,49.0,30.20,West,273,3.0,8.0,82,0.00,,,0.01,0,weatherlink.com 1.10,2013-04-06 04:05:00,
2013-04-05 21:20:00,54.7,50.0,30.21,SW,221,3.0,8.0,83,0.00,,,0.01,0,weatherlink.com 1.10,2013-04-06 04:20:00,
2013-04-05 21:35:00,54.8,49.0,30.22,West,267,4.0,9.0,82,0.00,,,0.01,0,weatherlink.com 1.10,2013-04-06 04:35:00,
2013-04-05 21:50:00,54.7,49.0,30.22,West,265,0.0,6.0,81,0.00,,,0.01,0,weatherlink.com 1.10,2013-04-06 04:50:00,
2013-04-05 22:05:00,54.8,49.0,30.22,West,265,4.0,4.0,81,0.00,,,0.01,0,weatherlink.com 1.10,2013-04-06 05:05:00,
2013-04-05 22:20:00,55.0,49.0,30.23,SW,215,6.0,7.0,81,0.00,,,0.01,0,weatherlink.com 1.10,2013-04-06 05:20:00,
2013-04-05 22:35:00,55.1,49.0,30.22,WSW,245,2.0,6.0,81,0.00,,,0.01,0,weatherlink.com 1.10,2013-04-06 05:35:00,
2013-04-05 22:50:00,55.1,49.0,30.23,SW,217,0.0,4.0,80,0.00,,,0.01,0,weatherlink.com 1.10,2013-04-06 05:50:00,
2013-04-05 23:05:00,54.7,50.0,30.23,WSW,248,3.0,7.0,83,0.00,,,0.01,0,weatherlink.com 1.10,2013-04-06 06:05:00,
2013-04-05 23:20:00,54.3,50.0,30.22,West,275,4.0,6.0,84,0.00,,,0.01,0,weatherlink.com 1.10,2013-04-06 06:20:00,
2013-04-05 23:35:00,53.9,50.0,30.22,West,271,0.0,4.0,85,0.00,,,0.01,0,weatherlink.com 1.10,2013-04-06 06:35:00,
2013-04-05 23:50:00,53.8,49.0,30.22,West,271,0.0,3.0,84,0.00,,,0.01,0,weatherlink.com 1.10,2013-04-06 06:50:00,